This is the latest recevied weather packets stored in our database for station/object KQ4NAL. If no packets are shown the sender has not sent any weather packets the latest 10 day(s).
| Time | Temp. | Humidity | Pressure | Rain* | Wind** | Luminosity | Snow |
|---|---|---|---|---|---|---|---|
| 1778098472 | 16.11° C | 52% | 1013.9 hPa | 0 mm | - | 324 W/m² | - |
| 1778098169 | 16.11° C | 51% | 1013.8 hPa | 0 mm | - | 294 W/m² | - |
| 1778097865 | 16.67° C | 50% | 1014 hPa | 0 mm | - | 261 W/m² | - |
| 1778097562 | 16.67° C | 52% | 1013.9 hPa | 0 mm | - | 301 W/m² | - |
| 1778097259 | 17.22° C | 50% | 1014 hPa | 0 mm | - | 359 W/m² | - |
| 1778096955 | 16.67° C | 48% | 1014.1 hPa | 0 mm | - | 363 W/m² | - |
| 1778096652 | 16.11° C | 51% | 1014.2 hPa | 0 mm | - | 341 W/m² | - |
| 1778096349 | 16.11° C | 51% | 1014 hPa | 0 mm | - | 395 W/m² | - |
| 1778096046 | 16.67° C | 49% | 1014.3 hPa | 0 mm | - | 438 W/m² | - |
| 1778095743 | 17.22° C | 51% | 1014 hPa | 0 mm | - | 371 W/m² | - |
| 1778095439 | 18.33° C | 49% | 1013.7 hPa | 0 mm | - | 576 W/m² | - |
| 1778095136 | 17.22° C | 49% | 1013.7 hPa | 0 mm | - | 719 W/m² | - |
| 1778094833 | 16.67° C | 53% | 1013.8 hPa | 0 mm | - | 735 W/m² | - |
| 1778094530 | 17.22° C | 47% | 1013.9 hPa | 0 mm | - | 731 W/m² | - |
| 1778094226 | 16.67° C | 51% | 1013.8 hPa | 0 mm | - | 697 W/m² | - |
| 1778093923 | 16.67° C | 55% | 1014.1 hPa | 0 mm | - | 720 W/m² | - |
| 1778093620 | 16.67° C | 54% | 1013.9 hPa | 0 mm | - | 580 W/m² | - |
| 1778093317 | 15.56° C | 52% | 1013.7 hPa | 0 mm | - | 741 W/m² | - |
| 1778093014 | 16.11° C | 54% | 1013.8 hPa | 0 mm | - | 719 W/m² | - |
| 1778092712 | 16.11° C | 54% | 1013.8 hPa | 0 mm | - | 615 W/m² | - |
| 1778092407 | 15.56° C | 55% | 1013.4 hPa | 0 mm | - | 688 W/m² | - |
| 1778092105 | 16.11° C | 57% | 1013.6 hPa | 0 mm | - | 722 W/m² | - |
| 1778091801 | 16.11° C | 53% | 1013.6 hPa | 0 mm | - | 739 W/m² | - |
| 1778091499 | 15.56° C | 54% | 1013.6 hPa | 0 mm | - | 629 W/m² | - |
| 1778091196 | 16.11° C | 55% | 1013.8 hPa | 0 mm | - | 734 W/m² | - |
* Rain latest hour (hover to see other rain measurements)
** Current wind speed in m/s (hover to see current wind gust speed)